Le nostre stazioni meteo in Italia

Pubblicità
Il mio iltempo24.it
Roma/Ciampino, Italia (16239): Temperatura & dewpoint: 12.03.2019 20:00:00 - 18.03.2019 20:00:00 (CET)Roma/Ciampino, Italia (16239): velocità del vento: 12.03.2019 20:00:00 - 18.03.2019 20:00:00 (CET)Roma/Ciampino, Italia (16239): direzione del vento: 12.03.2019 20:00:00 - 18.03.2019 20:00:00 (CET)Roma/Ciampino, Italia (16239): reduced air pressure: 12.03.2019 20:00:00 - 18.03.2019 20:00:00 (CET)Roma/Ciampino, Italia (16239): visibility: 12.03.2019 20:00:00 - 18.03.2019 20:00:00 (CET)Roma/Ciampino, Italia (16239): precipitazioni: 12.03.2019 20:00:00 - 18.03.2019 20:00:00 (CET)
Data & Tempo tt [°C] td [°C] ff [km/h] ff [kn] dd ppp [hPa] vv [km] rr [mm]
18.03.2019 20:00:00 - - - - - - - -
18.03.2019 19:00:00 11,5 6,6 8 4 S 1014,8 10 -
18.03.2019 18:00:00 12,0 6,0 15 8 S - 10 -
18.03.2019 17:00:00 13,0 5,0 16 9 SSO - 10 -
18.03.2019 16:00:00 14,4 6,7 18 10 S 1013,8 10 0,0
18.03.2019 15:00:00 14,0 9,0 22 12 SSO - 10 -
18.03.2019 14:00:00 15,0 8,0 18 10 S - 10 -
18.03.2019 13:00:00 15,3 8,8 21 11 SSE 1014,1 10 -
18.03.2019 12:00:00 14,0 8,0 22 12 S - 10 -
18.03.2019 11:00:00 14,0 9,0 16 9 S - 10 -
18.03.2019 10:00:00 14,1 9,1 18 10 SSE 1014,3 10 0,0
18.03.2019 09:00:00 13,0 9,0 18 10 SSE - 10 -
18.03.2019 08:00:00 12,0 9,0 18 10 SSE - 10 -
18.03.2019 07:00:00 10,5 7,3 8 4 S 1013,6 10 -
18.03.2019 06:00:00 10,0 7,0 4 2 - - 10 -
18.03.2019 05:00:00 10,0 7,0 9 5 SE - 10 -
18.03.2019 04:00:00 9,0 7,0 8 4 ESE - 10 -
18.03.2019 03:00:00 9,0 7,0 8 4 SE - 10 -
18.03.2019 02:00:00 9,0 7,0 8 4 SE - 10 -
18.03.2019 01:00:00 11,1 8,6 9 5 S 1013,8 10 -
18.03.2019 00:00:00 13,0 9,0 13 7 SE - 10 -
17.03.2019 23:00:00 13,0 9,0 9 5 SSE - 10 -
17.03.2019 22:00:00 12,5 10,2 9 5 S 1015,6 10 0,0
17.03.2019 21:00:00 13,0 10,0 8 4 SSE - 10 -
17.03.2019 20:00:00 13,0 10,0 11 6 S - 10 -
17.03.2019 19:00:00 12,9 9,6 11 6 SSO 1015,2 10 -
17.03.2019 18:00:00 14,0 10,0 15 8 SO - 10 -
17.03.2019 17:00:00 15,0 10,0 15 8 SSO - 10 -
17.03.2019 16:00:00 16,3 9,8 15 8 SO 1015,5 10 0,0
17.03.2019 15:00:00 17,0 10,0 11 6 S - 10 -
17.03.2019 14:00:00 17,0 9,0 13 7 S - 10 -
17.03.2019 13:00:00 16,0 7,8 11 6 S 1017,4 10 -
17.03.2019 12:00:00 15,0 9,0 8 4 S - 10 -
17.03.2019 11:00:00 14,0 9,0 5 3 - - 10 -
17.03.2019 10:00:00 13,2 8,8 8 4 S 1019,5 10 0,0
17.03.2019 09:00:00 13,0 9,0 8 4 SSE - 10 -
17.03.2019 08:00:00 11,0 9,0 11 6 SSE - 10 -
17.03.2019 07:00:00 7,4 6,3 5 3 ESE 1018,5 10 -
17.03.2019 06:00:00 7,0 6,0 9 5 E - 10 -
17.03.2019 05:00:00 8,0 6,0 5 3 ESE - 10 -
17.03.2019 04:00:00 7,4 6,0 8 4 E 1018,6 10 0,0
17.03.2019 03:00:00 8,0 7,0 5 3 E - 10 -
17.03.2019 02:00:00 8,0 6,0 4 2 ESE - 10 -
17.03.2019 01:00:00 8,4 6,5 8 4 E 1019,5 10 -
17.03.2019 00:00:00 9,0 7,0 5 3 E - 10 -
16.03.2019 23:00:00 9,0 7,0 4 2 ESE - 10 -
16.03.2019 22:00:00 9,8 7,9 4 2 - 1020,2 10 0,0
16.03.2019 21:00:00 11,0 8,0 4 2 SE - 10 -
16.03.2019 20:00:00 12,0 9,0 4 2 S - 10 -
16.03.2019 19:00:00 13,3 9,2 4 2 - 1019,4 10 -
16.03.2019 18:00:00 15,0 9,0 5 3 NNO - 10 -
16.03.2019 17:00:00 15,0 10,0 8 4 - - 10 -
16.03.2019 16:00:00 15,2 10,3 11 6 NNE 1019,0 10 0,0
16.03.2019 15:00:00 15,0 10,0 8 4 N - 10 -
16.03.2019 14:00:00 15,0 9,0 4 2 - - 10 -
16.03.2019 13:00:00 15,1 9,4 5 3 SSO 1020,2 9 -
16.03.2019 12:00:00 14,0 11,0 8 4 S - 9 -
16.03.2019 11:00:00 14,0 10,0 11 6 S - 8 -
16.03.2019 10:00:00 13,6 10,6 13 7 SSE 1020,3 8 0,0
16.03.2019 09:00:00 13,0 11,0 13 7 SSE - 8 -
16.03.2019 08:00:00 13,0 10,0 13 7 SSE - 9 -
16.03.2019 07:00:00 12,8 10,2 11 6 SSE 1018,7 8 -
16.03.2019 06:00:00 13,0 10,0 13 7 SE - 10 -
16.03.2019 05:00:00 13,0 10,0 15 8 SSE - 10 -
16.03.2019 04:00:00 13,0 10,0 13 7 SSE - 10 -
16.03.2019 03:00:00 13,0 10,0 11 6 SSE - 10 -
16.03.2019 02:00:00 12,0 10,0 11 6 SSE - 8 -
16.03.2019 01:00:00 12,2 9,8 9 5 SSE 1017,9 8 -
16.03.2019 00:00:00 11,0 10,0 8 4 SSE - 10 -
15.03.2019 23:00:00 11,0 10,0 8 4 SSE - 8 -
15.03.2019 22:00:00 11,2 9,8 8 4 SSE 1017,1 9 0,0
15.03.2019 21:00:00 10,0 9,0 5 3 S - 9 -
15.03.2019 20:00:00 11,0 9,0 5 3 SE - 10 -
15.03.2019 19:00:00 12,5 9,7 8 4 SSO 1016,2 10 -
15.03.2019 18:00:00 14,0 8,0 9 5 SSO - 10 -
15.03.2019 17:00:00 16,0 4,0 9 5 SO - 10 -
15.03.2019 16:00:00 15,8 3,9 9 5 OSO 1014,6 10 0,0
15.03.2019 15:00:00 17,0 3,0 13 7 O - 10 -
15.03.2019 14:00:00 17,0 6,0 16 9 OSO - 10 -
15.03.2019 13:00:00 17,1 4,4 13 7 N 1014,6 10 -
15.03.2019 12:00:00 16,0 4,0 18 10 N - 10 -
15.03.2019 11:00:00 15,0 5,0 21 11 N - 10 -
15.03.2019 10:00:00 13,0 4,4 9 5 N 1014,6 10 0,0
15.03.2019 09:00:00 9,0 4,0 11 6 N - 10 -
15.03.2019 08:00:00 7,0 4,0 9 5 NNE - 10 -
15.03.2019 07:00:00 5,3 3,0 5 3 NNE 1012,9 10 -
15.03.2019 06:00:00 5,0 3,0 4 2 - - 10 -
15.03.2019 05:00:00 5,0 2,0 4 2 NNE - 10 -
15.03.2019 04:00:00 4,4 2,2 4 2 - 1011,5 10 0,0
15.03.2019 03:00:00 7,0 1,0 9 5 E - 10 -
15.03.2019 02:00:00 - - - - - - - -
15.03.2019 01:00:00 8,6 3,7 9 5 E 1011,9 10 -
15.03.2019 00:00:00 8,0 6,0 9 5 E - 10 -
14.03.2019 23:00:00 9,0 6,0 8 4 ESE - 10 -
14.03.2019 22:00:00 8,8 6,0 9 5 SSE 1013,1 10 0,0
14.03.2019 21:00:00 10,0 7,0 8 4 S - 10 -
14.03.2019 20:00:00 10,0 7,0 8 4 S - 10 -
14.03.2019 19:00:00 10,8 5,6 4 2 - 1013,3 10 -
14.03.2019 18:00:00 13,0 6,0 15 8 O - 10 -
14.03.2019 17:00:00 14,0 4,0 18 10 O - 10 -
14.03.2019 16:00:00 14,5 2,5 21 11 ONO 1012,9 10 0,0
14.03.2019 15:00:00 - - - - - - - -
14.03.2019 14:00:00 16,0 -3,0 34 18 NNO - 10 -
14.03.2019 13:00:00 15,3 -2,3 29 16 NNO 1013,4 10 -
14.03.2019 12:00:00 14,0 2,0 22 12 N - 10 -
14.03.2019 11:00:00 12,0 3,0 22 12 NNO - 10 -
14.03.2019 10:00:00 10,6 3,4 24 13 N 1013,6 10 0,0
14.03.2019 09:00:00 8,0 4,0 21 11 N - 10 -
14.03.2019 08:00:00 7,0 3,0 24 13 N - 10 -
14.03.2019 07:00:00 6,4 3,5 11 6 N 1011,8 10 -
14.03.2019 06:00:00 7,0 4,0 16 9 N - 10 -
14.03.2019 05:00:00 7,0 6,0 16 9 NNO - 10 -
14.03.2019 04:00:00 7,4 6,3 13 7 N 1010,2 10 0,0
14.03.2019 03:00:00 7,0 6,0 9 5 ESE - 10 -
14.03.2019 02:00:00 9,0 6,0 4 2 SSE - 10 -
14.03.2019 01:00:00 9,2 6,8 5 3 SSE 1010,4 10 -
14.03.2019 00:00:00 10,0 7,0 15 8 SE - 10 -
13.03.2019 23:00:00 10,0 7,0 13 7 S - 10 -
13.03.2019 22:00:00 10,0 6,7 13 7 S 1012,2 10 0,0
13.03.2019 21:00:00 10,0 8,0 16 9 S - 10 -
13.03.2019 20:00:00 10,0 9,0 16 9 S - 10 -
13.03.2019 19:00:00 10,4 9,5 16 9 SSO 1012,8 2,0 -
13.03.2019 18:00:00 12,0 9,0 15 8 S - 8 -
13.03.2019 17:00:00 13,0 8,0 15 8 S - 10 -
13.03.2019 16:00:00 13,0 8,6 15 8 S 1014,1 10 0,0
13.03.2019 15:00:00 13,0 8,0 16 9 S - 10 -
13.03.2019 14:00:00 14,0 7,0 15 8 SSO - 10 -
13.03.2019 13:00:00 14,1 5,4 15 8 SSO 1016,0 10 -
13.03.2019 12:00:00 14,0 2,0 8 4 - - 10 -
13.03.2019 11:00:00 13,0 -2,0 4 2 - - 10 -
13.03.2019 10:00:00 11,4 -2,4 4 2 NNO 1018,2 - 0,0
13.03.2019 09:00:00 7,0 -3,0 5 3 N - 10 -
13.03.2019 08:00:00 5,0 -4,0 5 3 NNO - 10 -
13.03.2019 07:00:00 2,3 -5,4 4 2 - 1018,1 10 -
13.03.2019 06:00:00 4,0 -7,0 5 3 E - 10 -
13.03.2019 05:00:00 4,0 -8,0 4 2 ENE - 10 -
13.03.2019 04:00:00 5,0 -8,8 8 4 E 1019,5 10 0,0
13.03.2019 03:00:00 4,0 -7,0 4 2 - - 10 -
13.03.2019 02:00:00 3,0 -6,0 2 1 - - 10 -
13.03.2019 01:00:00 4,6 -6,8 8 4 ENE 1020,6 10 -
13.03.2019 00:00:00 6,0 -7,0 8 4 ENE - 10 -
12.03.2019 23:00:00 5,0 -6,0 4 2 - - 10 -
12.03.2019 22:00:00 5,8 -5,9 5 3 NE 1021,2 10 0,0
12.03.2019 21:00:00 9,0 -8,0 5 3 NNE - 10 -
12.03.2019 20:00:00 11,0 -9,0 13 7 N - 10 -

tt = Temperatura
td = dewpoint
ff = velocità del vento
dd = direzione del vento
ppp = reduced air pressure
vv = visibility
rr = precipitazioni

Stazioni seguenti

WeatherPro
AMSI
MeteoEarth